Regional Weather Roundup
Issued by NWS

Home | Current Version | Previous Version | Graphics & Text | Print | Product List | Glossary On
Versions: 1 2 3 4 5 6 7 8 9 10 11 12 13 14 15 16 17 18 19 20 21 22 23 24 25 26 27 28 29 30 31 32 33 34 35 36 37 38 39 40 41 42 43 44 45 46 47 48 49 50
518
ASUS45 KBOU 250710
RWRCO

WEATHER ROUNDUP FOR COLORADO
NATIONAL WEATHER SERVICE DENVER/BOULDER CO
100 AM MDT SUN SEP 25 2016

NOTE: "FAIR" INDICATES FEW OR NO CLOUDS BELOW 12000 FEET WITH NO
SIGNIFICANT WEATHER AND/OR OBSTRUCTIONS TO VISIBILITY.

COZ001>005-013-030-031-250800-
...NORTHWEST COLORADO...

CITY           SKY/WX    TMP DP  RH WIND       PRES   REMARKS
CRAIG          FAIR      38  35  89 CALM      30.43R FOG
HAYDEN         MOCLDY    41  36  81 NE5       30.43R
MEEKER         CLOUDY    43  41  93 CALM      30.44R
MOUNT WERNER   NOT AVBL
STEAMBOAT SPGS CLOUDY    40  38  93 E5        30.43S
WALDEN           N/A     36  32  87 N3        30.46R
$$

COZ006>008-011-250800-
...WEST CENTRAL VALLEYS...

CITY           SKY/WX    TMP DP  RH WIND       PRES   REMARKS
GRAND JUNCTION MOCLDY    51  40  65 N8        30.37R
MONTROSE       CLOUDY    49  41  74 CALM      30.40R
EAGLE          CLOUDY    45  41  87 NE3       30.45R
RIFLE          CLOUDY    49  45  86 W3        30.40S
DELTA          NOT AVBL
NUCLA          FAIR      50  36  57 N5        30.41S
$$

COZ017>023-064>068-250800-
...SOUTHWEST COLORADO...

CITY           SKY/WX    TMP DP  RH WIND       PRES   REMARKS
DURANGO        FAIR      39  31  72 N6        30.29R
CORTEZ         FAIR      45  36  70 E7        30.31R
PAGOSA SPRINGS FAIR      40  29  65 CALM      30.33S
TELLURIDE      CLOUDY    40  32  73 S3        30.46R
WOLF CREEK PAS FAIR      27  23  86 MISG      30.50F
$$

COZ009-010-012-014-032>034-037-058>063-250800-
...CENTRAL COLORADO...

CITY           SKY/WX    TMP DP  RH WIND       PRES   REMARKS
ASPEN          CLOUDY    43  37  79 CALM      30.44R
BUENA VISTA    FAIR      43  29  56 NW16      30.40R
COPPER MTN     HAZE      32  28  86 MISG      30.54R VSB 1/4
BERTHOUD PASS  CLOUDY    23  10  58 NW16G23   30.52S WCI  10
COTTONWOOD PAS FAIR      41  27  56 SW9       30.46R
GUNNISON       CLOUDY    39  36  87 CALM      30.43R
KREMMLING      CLOUDY    41  34  75 CALM      30.45R
LEADVILLE      CLOUDY    34  27  75 N7        30.46R WCI  28
SALIDA         FAIR      41  30  66 W7        30.47R
SUNLIGHT       CLOUDY    32  32 100 MISG      30.55S
WILKERSON PASS FAIR      32  23  69 NE8       30.52R WCI  25
$$

COZ069>075-250800-
...SAN LUIS VALLEY/SANGRE DE CRISTO MOUNTAINS...

CITY           SKY/WX    TMP DP  RH WIND       PRES   REMARKS
ALAMOSA        FAIR      39  29  67 NE6       30.36R
LA VETA PASS   FAIR      36  25  64 MISG      30.45R
SAGUACHE       NOT AVBL
$$

COZ035-036-038>040-250800-
...NORTHERN COLORADO FRONT RANGE...

CITY           SKY/WX    TMP DP  RH WIND       PRES   REMARKS
DENVER INTL AP MOCLDY    46  32  58 CALM      30.33R
DMNS CITY PARK   N/A     50  36  59 E8        30.33R
AURORA         PTCLDY    47  33  60 E5        30.34R
FRONT RANGE AP CLOUDY    48  34  57 E3        30.34R
ERIE MUNI ARPT CLOUDY    51  35  55 CALM      30.32R
BOULDER MUN AP CLOUDY    52  36  54 SE3       30.31R
CENTENNIAL     FAIR      48  33  56 SE5       30.34R
BROOMFIELD     CLOUDY    52  34  50 CALM      30.34R
FORT COLLINS   FAIR      52  36  54 N13       30.31R
LONGMONT       CLOUDY    54  36  50 SW5       30.32R
$$

COZ041-046-047-076>085-087-088-250800-
...PIKES PEAK/PALMER DIVIDE AND SOUTHERN FOOTHILLS...

CITY           SKY/WX    TMP DP  RH WIND       PRES   REMARKS
COLO. SPRINGS  FAIR      48  33  56 N15       30.35R
A. F. ACADEMY  FAIR      46  31  55 N8        30.36R
SCHRIEVER AFB  NOT AVBL
ELLICOTT       NOT AVBL
FALCON         MOCLDY    42  33  71 N7        30.37R
FORT CARSON    FAIR      49  33  54 N9        30.31R
LIMON          FAIR      46  35  65 N13       30.31R
MONUMENT HILL  CLOUDY    41  32  70 NE5       30.39R
TRINIDAD       FAIR      45  27  49 W7        30.31R
$$

COZ042>045-048>051-090-091-250800-
...NORTHEAST COLORADO...

CITY           SKY/WX    TMP DP  RH WIND       PRES   REMARKS
GREELEY ARPT   FAIR      48  36  61 N9        30.31R
AKRON          FAIR      44  37  76 NW12      30.29R
BURLINGTON     FAIR      53  39  59 N10       30.25R
WRAY           FAIR      48  37  66 W7        30.24
STERLING       FAIR      41  36  81 NW3       30.26R
HOLYOKE        FAIR      54  41  62 NW10      30.24R
FORT MORGAN    FAIR      48  35  59 N13       30.30R
$$

COZ086-089-092>099-250800-
...SOUTHEAST COLORADO...

CITY           SKY/WX    TMP DP  RH WIND       PRES   REMARKS
PUEBLO         FAIR      55  34  45 N15       30.27R
LA JUNTA       FAIR      58  36  43 N16       30.24R
LAMAR          FAIR      58  39  49 NE18      30.18R
SPRINGFIELD    NOT AVBL
$$




USA.gov is the U.S. government's official web portal to all federal, state and local government web resources and services.